Year,Month,Day,Hour,Minute,Value (Times are PST for temperature in C)
2013,05,07,00,00,19.00
2013,05,07,00,01,18.90
2013,05,07,00,02,18.90
2013,05,07,00,03,18.90
2013,05,07,00,04,18.90
2013,05,07,00,05,18.80
2013,05,07,00,06,18.80
2013,05,07,00,07,18.80
2013,05,07,00,08,18.70
2013,05,07,00,09,18.70
2013,05,07,00,10,18.60
2013,05,07,00,11,18.50
2013,05,07,00,12,18.50
2013,05,07,00,13,18.40
2013,05,07,00,14,18.30
2013,05,07,00,15,18.20
2013,05,07,00,16,18.10
2013,05,07,00,17,18.00
2013,05,07,00,18,17.90
2013,05,07,00,19,17.80
2013,05,07,00,20,17.70
2013,05,07,00,21,17.60
2013,05,07,00,22,17.50
2013,05,07,00,23,17.40
2013,05,07,00,24,17.40
2013,05,07,00,25,17.30
2013,05,07,00,26,17.20
2013,05,07,00,27,17.10
2013,05,07,00,28,17.00
2013,05,07,00,29,16.90
2013,05,07,00,30,16.90
2013,05,07,00,31,16.80
2013,05,07,00,32,16.70
2013,05,07,00,33,16.60
2013,05,07,00,34,16.60
2013,05,07,00,35,16.50
2013,05,07,00,36,16.40
2013,05,07,00,37,16.40
2013,05,07,00,38,16.30
2013,05,07,00,39,16.40
2013,05,07,00,40,16.40
2013,05,07,00,41,16.40
2013,05,07,00,42,16.50
2013,05,07,00,43,16.60
2013,05,07,00,44,16.70
2013,05,07,00,45,16.80
2013,05,07,00,46,17.00
2013,05,07,00,47,17.10
2013,05,07,00,48,17.20
2013,05,07,00,49,17.30
2013,05,07,00,50,17.40
2013,05,07,00,51,17.40
2013,05,07,00,52,17.50
2013,05,07,00,53,17.60
2013,05,07,00,54,17.60
2013,05,07,00,55,17.60
2013,05,07,00,56,17.70
2013,05,07,00,57,17.70
2013,05,07,00,58,17.70
2013,05,07,00,59,17.60
2013,05,07,01,00,17.60
2013,05,07,01,01,17.60
2013,05,07,01,02,17.50
2013,05,07,01,03,17.50
2013,05,07,01,04,17.40
2013,05,07,01,05,17.40
2013,05,07,01,06,17.40
2013,05,07,01,07,17.40
2013,05,07,01,08,17.30
2013,05,07,01,09,17.30
2013,05,07,01,10,17.30
2013,05,07,01,11,17.20
2013,05,07,01,12,17.10
2013,05,07,01,13,17.10
2013,05,07,01,14,17.00
2013,05,07,01,15,16.90
2013,05,07,01,16,16.90
2013,05,07,01,17,16.80
2013,05,07,01,18,16.70
2013,05,07,01,19,16.60
2013,05,07,01,20,16.60
2013,05,07,01,21,16.60
2013,05,07,01,22,16.60
2013,05,07,01,23,16.60
2013,05,07,01,24,16.70
2013,05,07,01,25,16.80
2013,05,07,01,26,16.90
2013,05,07,01,27,16.90
2013,05,07,01,28,17.00
2013,05,07,01,29,17.10
2013,05,07,01,30,17.10
2013,05,07,01,31,17.20
2013,05,07,01,32,17.20
2013,05,07,01,33,17.20
2013,05,07,01,34,17.20
2013,05,07,01,35,17.20
2013,05,07,01,36,17.20
2013,05,07,01,37,17.20
2013,05,07,01,38,17.20
2013,05,07,01,39,17.20
2013,05,07,01,40,17.30
2013,05,07,01,41,17.30
2013,05,07,01,42,17.40
2013,05,07,01,43,17.50
2013,05,07,01,44,17.50
2013,05,07,01,45,17.60
2013,05,07,01,46,17.60
2013,05,07,01,47,17.60
2013,05,07,01,48,17.60
2013,05,07,01,49,17.60
2013,05,07,01,50,17.60
2013,05,07,01,51,17.60
2013,05,07,01,52,17.60
2013,05,07,01,53,17.60
2013,05,07,01,54,17.50
2013,05,07,01,55,17.50
2013,05,07,01,56,17.40
2013,05,07,01,57,17.40
2013,05,07,01,58,17.30
2013,05,07,01,59,17.20
2013,05,07,02,00,17.10
2013,05,07,02,01,17.00
2013,05,07,02,02,16.80
2013,05,07,02,03,16.70
2013,05,07,02,04,16.60
2013,05,07,02,05,16.40
2013,05,07,02,06,16.30
2013,05,07,02,07,16.20
2013,05,07,02,08,16.10
2013,05,07,02,09,16.00
2013,05,07,02,10,15.90
2013,05,07,02,11,15.90
2013,05,07,02,12,15.80
2013,05,07,02,13,15.80
2013,05,07,02,14,15.70
2013,05,07,02,15,15.70
2013,05,07,02,16,15.60
2013,05,07,02,17,15.60
2013,05,07,02,18,15.50
2013,05,07,02,19,15.50
2013,05,07,02,20,15.40
2013,05,07,02,21,15.40
2013,05,07,02,22,15.30
2013,05,07,02,23,15.20
2013,05,07,02,24,15.20
2013,05,07,02,25,15.10
2013,05,07,02,26,15.00
2013,05,07,02,27,15.00
2013,05,07,02,28,15.00
2013,05,07,02,29,15.00
2013,05,07,02,30,15.00
2013,05,07,02,31,14.90
2013,05,07,02,32,14.80
2013,05,07,02,33,14.80
2013,05,07,02,34,14.70
2013,05,07,02,35,14.70
2013,05,07,02,36,14.60
2013,05,07,02,37,14.60
2013,05,07,02,38,14.60
2013,05,07,02,39,14.50
2013,05,07,02,40,14.50
2013,05,07,02,41,14.50
2013,05,07,02,42,14.40
2013,05,07,02,43,14.40
2013,05,07,02,44,14.40
2013,05,07,02,45,14.30
2013,05,07,02,46,14.30
2013,05,07,02,47,14.40
2013,05,07,02,48,14.40
2013,05,07,02,49,14.50
2013,05,07,02,50,14.50
2013,05,07,02,51,14.50
2013,05,07,02,52,14.60
2013,05,07,02,53,14.60
2013,05,07,02,54,14.60
2013,05,07,02,55,14.70
2013,05,07,02,56,14.70
2013,05,07,02,57,14.80
2013,05,07,02,58,14.80
2013,05,07,02,59,14.80
2013,05,07,03,00,14.80
2013,05,07,03,01,14.80
2013,05,07,03,02,14.80
2013,05,07,03,03,14.80
2013,05,07,03,04,14.80
2013,05,07,03,05,14.80
2013,05,07,03,06,14.70
2013,05,07,03,07,14.70
2013,05,07,03,08,14.60
2013,05,07,03,09,14.60
2013,05,07,03,10,14.60
2013,05,07,03,11,14.60
2013,05,07,03,12,14.70
2013,05,07,03,13,14.70
2013,05,07,03,14,14.80
2013,05,07,03,15,14.80
2013,05,07,03,16,14.90
2013,05,07,03,17,15.00
2013,05,07,03,18,15.00
2013,05,07,03,19,15.00
2013,05,07,03,20,15.00
2013,05,07,03,21,15.10
2013,05,07,03,22,15.10
2013,05,07,03,23,15.10
2013,05,07,03,24,15.00
2013,05,07,03,25,15.00
2013,05,07,03,26,15.00
2013,05,07,03,27,15.00
2013,05,07,03,28,15.00
2013,05,07,03,29,15.00
2013,05,07,03,30,14.90
2013,05,07,03,31,14.80
2013,05,07,03,32,14.70
2013,05,07,03,33,14.50
2013,05,07,03,34,14.40
2013,05,07,03,35,14.40
2013,05,07,03,36,14.30
2013,05,07,03,37,14.20
2013,05,07,03,38,14.20
2013,05,07,03,39,14.20
2013,05,07,03,40,14.10
2013,05,07,03,41,14.10
2013,05,07,03,42,14.10
2013,05,07,03,43,14.10
2013,05,07,03,44,14.10
2013,05,07,03,45,14.10
2013,05,07,03,46,14.10
2013,05,07,03,47,14.00
2013,05,07,03,48,14.00
2013,05,07,03,49,14.00
2013,05,07,03,50,14.00
2013,05,07,03,51,13.90
2013,05,07,03,52,13.90
2013,05,07,03,53,13.90
2013,05,07,03,54,13.80
2013,05,07,03,55,13.80
2013,05,07,03,56,13.80
2013,05,07,03,57,13.70
2013,05,07,03,58,13.70
2013,05,07,03,59,13.60
2013,05,07,04,00,13.60
2013,05,07,04,01,13.50
2013,05,07,04,02,13.50
2013,05,07,04,03,13.50
2013,05,07,04,04,13.40
2013,05,07,04,05,13.40
2013,05,07,04,06,13.40
2013,05,07,04,07,13.40
2013,05,07,04,08,13.40
2013,05,07,04,09,13.40
2013,05,07,04,10,13.40
2013,05,07,04,11,13.30
2013,05,07,04,12,13.30
2013,05,07,04,13,13.30
2013,05,07,04,14,13.30
2013,05,07,04,15,13.20
2013,05,07,04,16,13.20
2013,05,07,04,17,13.20
2013,05,07,04,18,13.20
2013,05,07,04,19,13.10
2013,05,07,04,20,13.10
2013,05,07,04,21,13.00
2013,05,07,04,22,13.00
2013,05,07,04,23,12.90
2013,05,07,04,24,12.90
2013,05,07,04,25,12.90
2013,05,07,04,26,12.90
2013,05,07,04,27,12.80
2013,05,07,04,28,12.80
2013,05,07,04,29,12.80
2013,05,07,04,30,12.80
2013,05,07,04,31,12.70
2013,05,07,04,32,12.70
2013,05,07,04,33,12.70
2013,05,07,04,34,12.70
2013,05,07,04,35,12.70
2013,05,07,04,36,12.70
2013,05,07,04,37,12.60
2013,05,07,04,38,12.60
2013,05,07,04,39,12.60
2013,05,07,04,40,12.60
2013,05,07,04,41,12.60
2013,05,07,04,42,12.50
2013,05,07,04,43,12.50
2013,05,07,04,44,12.50
2013,05,07,04,45,12.40
2013,05,07,04,46,12.40
2013,05,07,04,47,12.40
2013,05,07,04,48,12.40
2013,05,07,04,49,12.40
2013,05,07,04,50,12.30
2013,05,07,04,51,12.30
2013,05,07,04,52,12.30
2013,05,07,04,53,12.30
2013,05,07,04,54,12.20
2013,05,07,04,55,12.20
2013,05,07,04,56,12.20
2013,05,07,04,57,12.20
2013,05,07,04,58,12.10
2013,05,07,04,59,12.10
2013,05,07,05,00,12.10
2013,05,07,05,01,12.10
2013,05,07,05,02,12.10
2013,05,07,05,03,12.10
2013,05,07,05,04,12.00
2013,05,07,05,05,12.00
2013,05,07,05,06,12.00
2013,05,07,05,07,11.90
2013,05,07,05,08,11.90
2013,05,07,05,09,11.90
2013,05,07,05,10,11.90
2013,05,07,05,11,11.90
2013,05,07,05,12,11.80
2013,05,07,05,13,11.80
2013,05,07,05,14,11.80
2013,05,07,05,15,11.80
2013,05,07,05,16,11.80
2013,05,07,05,17,11.80
2013,05,07,05,18,11.70
2013,05,07,05,19,11.70
2013,05,07,05,20,11.70
2013,05,07,05,21,11.70
2013,05,07,05,22,11.70
2013,05,07,05,23,11.70
2013,05,07,05,24,11.70
2013,05,07,05,25,11.70
2013,05,07,05,26,11.60
2013,05,07,05,27,11.60
2013,05,07,05,28,11.60
2013,05,07,05,29,11.60
2013,05,07,05,30,11.60
2013,05,07,05,31,11.60
2013,05,07,05,32,11.60
2013,05,07,05,33,11.60
2013,05,07,05,34,11.60
2013,05,07,05,35,11.60
2013,05,07,05,36,11.70
2013,05,07,05,37,11.70
2013,05,07,05,38,11.70
2013,05,07,05,39,11.70
2013,05,07,05,40,11.70
2013,05,07,05,41,11.70
2013,05,07,05,42,11.70
2013,05,07,05,43,11.70
2013,05,07,05,44,11.70
2013,05,07,05,45,11.70
2013,05,07,05,46,11.70
2013,05,07,05,47,11.70
2013,05,07,05,48,11.70
2013,05,07,05,49,11.70
2013,05,07,05,50,11.70
2013,05,07,05,51,11.70
2013,05,07,05,52,11.70
2013,05,07,05,53,11.70
2013,05,07,05,54,11.70
2013,05,07,05,55,11.70
2013,05,07,05,56,11.70
2013,05,07,05,57,11.70
2013,05,07,05,58,11.70
2013,05,07,05,59,11.70
2013,05,07,06,00,11.70
2013,05,07,06,01,11.70
2013,05,07,06,02,11.70
2013,05,07,06,03,11.60
2013,05,07,06,04,11.60
2013,05,07,06,05,11.60
2013,05,07,06,06,11.60
2013,05,07,06,07,11.60
2013,05,07,06,08,11.60
2013,05,07,06,09,11.60
2013,05,07,06,10,11.60
2013,05,07,06,11,11.70
2013,05,07,06,12,11.70
2013,05,07,06,13,11.70
2013,05,07,06,14,11.70
2013,05,07,06,15,11.70
2013,05,07,06,16,11.70
2013,05,07,06,17,11.70
2013,05,07,06,18,11.70
2013,05,07,06,19,11.70
2013,05,07,06,20,11.70
2013,05,07,06,21,11.70
2013,05,07,06,22,11.70
2013,05,07,06,23,11.70
2013,05,07,06,24,11.80
2013,05,07,06,25,11.80
2013,05,07,06,26,11.80
2013,05,07,06,27,11.80
2013,05,07,06,28,11.80
2013,05,07,06,29,11.80
2013,05,07,06,30,11.90
2013,05,07,06,31,11.90
2013,05,07,06,32,11.90
2013,05,07,06,33,12.00
2013,05,07,06,34,12.00
2013,05,07,06,35,12.00
2013,05,07,06,36,12.10
2013,05,07,06,37,12.10
2013,05,07,06,38,12.10
2013,05,07,06,39,12.10
2013,05,07,06,40,12.20
2013,05,07,06,41,12.20
2013,05,07,06,42,12.30
2013,05,07,06,43,12.30
2013,05,07,06,44,12.40
2013,05,07,06,45,12.40
2013,05,07,06,46,12.50
2013,05,07,06,47,12.60
2013,05,07,06,48,12.70
2013,05,07,06,49,12.80
2013,05,07,06,50,12.80
2013,05,07,06,51,12.90
2013,05,07,06,52,13.00
2013,05,07,06,53,13.10
2013,05,07,06,54,13.20
2013,05,07,06,55,13.20
2013,05,07,06,56,13.30
2013,05,07,06,57,13.40
2013,05,07,06,58,13.50
2013,05,07,06,59,13.50
2013,05,07,07,00,13.60
2013,05,07,07,01,13.70
2013,05,07,07,02,13.80
2013,05,07,07,03,13.80
2013,05,07,07,04,13.90
2013,05,07,07,05,14.00
2013,05,07,07,06,14.10
2013,05,07,07,07,14.10
2013,05,07,07,08,14.20
2013,05,07,07,09,14.30
2013,05,07,07,10,14.30
2013,05,07,07,11,14.40
2013,05,07,07,12,14.50
2013,05,07,07,13,14.50
2013,05,07,07,14,14.60
2013,05,07,07,15,14.70
2013,05,07,07,16,14.70
2013,05,07,07,17,14.80
2013,05,07,07,18,15.00
2013,05,07,07,19,15.00
2013,05,07,07,20,15.00
2013,05,07,07,21,15.00
2013,05,07,07,22,15.00
2013,05,07,07,23,15.20
2013,05,07,07,24,15.20
2013,05,07,07,25,15.30
2013,05,07,07,26,15.30
2013,05,07,07,27,15.40
2013,05,07,07,28,15.40
2013,05,07,07,29,15.50
2013,05,07,07,30,15.50
2013,05,07,07,31,15.60
2013,05,07,07,32,15.60
2013,05,07,07,33,15.60
2013,05,07,07,34,15.70
2013,05,07,07,35,15.70
2013,05,07,07,36,15.70
2013,05,07,07,37,15.80
2013,05,07,07,38,15.80
2013,05,07,07,39,15.80
2013,05,07,07,40,15.80
2013,05,07,07,41,15.90
2013,05,07,07,42,16.00
2013,05,07,07,43,16.10
2013,05,07,07,44,16.20
2013,05,07,07,45,16.30
2013,05,07,07,46,16.40
2013,05,07,07,47,16.50
2013,05,07,07,48,16.60
2013,05,07,07,49,16.60
2013,05,07,07,50,16.70
2013,05,07,07,51,16.70
2013,05,07,07,52,16.80
2013,05,07,07,53,16.90
2013,05,07,07,54,16.90
2013,05,07,07,55,17.10
2013,05,07,07,56,17.20
2013,05,07,07,57,17.20
2013,05,07,07,58,17.20
2013,05,07,07,59,17.30
2013,05,07,08,00,17.30
2013,05,07,08,01,17.20
2013,05,07,08,02,17.20
2013,05,07,08,03,17.20
2013,05,07,08,04,17.20
2013,05,07,08,05,17.20
2013,05,07,08,06,17.10
2013,05,07,08,07,17.10
2013,05,07,08,08,17.10
2013,05,07,08,09,17.10
2013,05,07,08,10,17.10
2013,05,07,08,11,17.10
2013,05,07,08,12,17.20
2013,05,07,08,13,17.20
2013,05,07,08,14,17.20
2013,05,07,08,15,17.20
2013,05,07,08,16,17.20
2013,05,07,08,17,17.10
2013,05,07,08,18,17.20
2013,05,07,08,19,17.20
2013,05,07,08,20,17.20
2013,05,07,08,21,17.20
2013,05,07,08,22,17.20
2013,05,07,08,23,17.20
2013,05,07,08,24,17.30
2013,05,07,08,25,17.30
2013,05,07,08,26,17.30
2013,05,07,08,27,17.30
2013,05,07,08,28,17.30
2013,05,07,08,29,17.40
2013,05,07,08,30,17.30
2013,05,07,08,31,17.40
2013,05,07,08,32,17.40
2013,05,07,08,33,17.50
2013,05,07,08,34,17.50
2013,05,07,08,35,17.50
2013,05,07,08,36,17.60
2013,05,07,08,37,17.60
2013,05,07,08,38,17.60
2013,05,07,08,39,17.60
2013,05,07,08,40,17.60
2013,05,07,08,41,17.60
2013,05,07,08,42,17.60
2013,05,07,08,43,17.60
2013,05,07,08,44,17.70
2013,05,07,08,45,17.80
2013,05,07,08,46,17.80
2013,05,07,08,47,17.90
2013,05,07,08,48,17.90
2013,05,07,08,49,18.00
2013,05,07,08,50,18.00
2013,05,07,08,51,18.10
2013,05,07,08,52,18.10
2013,05,07,08,53,18.20
2013,05,07,08,54,18.20
2013,05,07,08,55,18.30
2013,05,07,08,56,18.20
2013,05,07,08,57,18.20
2013,05,07,08,58,18.20
2013,05,07,08,59,18.10
2013,05,07,09,00,18.10
2013,05,07,09,01,18.00
2013,05,07,09,02,17.90
2013,05,07,09,03,17.90
2013,05,07,09,04,17.80
2013,05,07,09,05,17.80
2013,05,07,09,06,17.70
2013,05,07,09,07,17.70
2013,05,07,09,08,17.70
2013,05,07,09,09,17.70
2013,05,07,09,10,17.60
2013,05,07,09,11,17.60
2013,05,07,09,12,17.60
2013,05,07,09,13,17.60
2013,05,07,09,14,17.60
2013,05,07,09,15,17.60
2013,05,07,09,16,17.60
2013,05,07,09,17,17.60
2013,05,07,09,18,17.60
2013,05,07,09,19,17.60
2013,05,07,09,20,17.60
2013,05,07,09,21,17.60
2013,05,07,09,22,17.60
2013,05,07,09,23,17.60
2013,05,07,09,24,17.60
2013,05,07,09,25,17.70
2013,05,07,09,26,17.70
2013,05,07,09,27,17.70
2013,05,07,09,28,17.80
2013,05,07,09,29,17.90
2013,05,07,09,30,17.90
2013,05,07,09,31,17.90
2013,05,07,09,32,17.90
2013,05,07,09,33,17.80
2013,05,07,09,34,17.70
2013,05,07,09,35,17.60
2013,05,07,09,36,17.50
2013,05,07,09,37,17.50
2013,05,07,09,38,17.40
2013,05,07,09,39,17.30
2013,05,07,09,40,17.30
2013,05,07,09,41,17.40
2013,05,07,09,42,17.40
2013,05,07,09,43,17.50
2013,05,07,09,44,17.50
2013,05,07,09,45,17.60
2013,05,07,09,46,17.70
2013,05,07,09,47,17.80
2013,05,07,09,48,17.80
2013,05,07,09,49,17.90
2013,05,07,09,50,18.00
2013,05,07,09,51,18.00
2013,05,07,09,52,18.10
2013,05,07,09,53,18.10
2013,05,07,09,54,18.10
2013,05,07,09,55,18.20
2013,05,07,09,56,18.20
2013,05,07,09,57,18.20
2013,05,07,09,58,18.10
2013,05,07,09,59,18.10
2013,05,07,10,00,18.10
2013,05,07,10,01,18.10
2013,05,07,10,02,18.10
2013,05,07,10,03,18.10
2013,05,07,10,04,18.10
2013,05,07,10,05,18.10
2013,05,07,10,06,18.10
2013,05,07,10,07,18.00
2013,05,07,10,08,18.00
2013,05,07,10,09,18.00
2013,05,07,10,10,18.10
2013,05,07,10,11,18.10
2013,05,07,10,12,18.20
2013,05,07,10,13,18.20
2013,05,07,10,14,18.30
2013,05,07,10,15,18.30
2013,05,07,10,16,18.30
2013,05,07,10,17,18.30
2013,05,07,10,18,18.30
2013,05,07,10,19,18.30
2013,05,07,10,20,18.30
2013,05,07,10,21,18.20
2013,05,07,10,22,18.20
2013,05,07,10,23,18.20
2013,05,07,10,24,18.20
2013,05,07,10,25,18.20
2013,05,07,10,26,18.30
2013,05,07,10,27,18.30
2013,05,07,10,28,18.30
2013,05,07,10,29,18.40
2013,05,07,10,30,18.40
2013,05,07,10,31,18.50
2013,05,07,10,32,18.60
2013,05,07,10,33,18.70
2013,05,07,10,34,18.80
2013,05,07,10,35,18.90
2013,05,07,10,36,18.90
2013,05,07,10,37,19.00
2013,05,07,10,38,19.00
2013,05,07,10,39,19.00
2013,05,07,10,40,18.90
2013,05,07,10,41,18.90
2013,05,07,10,42,18.90
2013,05,07,10,43,18.90
2013,05,07,10,44,18.90
2013,05,07,10,45,18.90
2013,05,07,10,46,18.90
2013,05,07,10,47,19.00
2013,05,07,10,48,19.00
2013,05,07,10,49,19.00
2013,05,07,10,50,19.10
2013,05,07,10,51,19.10
2013,05,07,10,52,19.00
2013,05,07,10,53,19.00
2013,05,07,10,54,19.00
2013,05,07,10,55,19.00
2013,05,07,10,56,19.10
2013,05,07,10,57,19.10
2013,05,07,10,58,19.10
2013,05,07,10,59,19.10
2013,05,07,11,00,19.00
2013,05,07,11,01,18.90
2013,05,07,11,02,18.90
2013,05,07,11,03,18.80
2013,05,07,11,04,18.70
2013,05,07,11,05,18.70
2013,05,07,11,06,18.70
2013,05,07,11,07,18.70
2013,05,07,11,08,18.70
2013,05,07,11,09,18.70
2013,05,07,11,10,18.70
2013,05,07,11,11,18.80
2013,05,07,11,12,18.80
2013,05,07,11,13,18.80
2013,05,07,11,14,18.80
2013,05,07,11,15,18.80
2013,05,07,11,16,18.80
2013,05,07,11,17,18.80
2013,05,07,11,18,18.80
2013,05,07,11,19,18.80
2013,05,07,11,20,18.90
2013,05,07,11,21,18.80
2013,05,07,11,22,18.80
2013,05,07,11,23,18.90
2013,05,07,11,24,18.90
2013,05,07,11,25,18.80
2013,05,07,11,26,18.80
2013,05,07,11,27,18.80
2013,05,07,11,28,18.90
2013,05,07,11,29,18.90
2013,05,07,11,30,19.00
2013,05,07,11,31,19.00
2013,05,07,11,32,19.00
2013,05,07,11,33,19.00
2013,05,07,11,34,19.00
2013,05,07,11,35,18.90
2013,05,07,11,36,18.90
2013,05,07,11,37,18.90
2013,05,07,11,38,18.90
2013,05,07,11,39,18.80
2013,05,07,11,40,18.80
2013,05,07,11,41,18.70
2013,05,07,11,42,18.60
2013,05,07,11,43,18.60
2013,05,07,11,44,18.60
2013,05,07,11,45,18.70
2013,05,07,11,46,18.70
2013,05,07,11,47,18.70
2013,05,07,11,48,18.70
2013,05,07,11,49,18.80
2013,05,07,11,50,18.90
2013,05,07,11,51,18.90
2013,05,07,11,52,19.00
2013,05,07,11,53,19.10
2013,05,07,11,54,19.20
2013,05,07,11,55,19.20
2013,05,07,11,56,19.30
2013,05,07,11,57,19.30
2013,05,07,11,58,19.40
2013,05,07,11,59,19.40
2013,05,07,12,00,19.60
2013,05,07,12,01,19.70
2013,05,07,12,02,19.70
2013,05,07,12,03,19.80
2013,05,07,12,04,19.80
2013,05,07,12,05,19.80
2013,05,07,12,06,19.90
2013,05,07,12,07,19.90
2013,05,07,12,08,20.00
2013,05,07,12,09,20.00
2013,05,07,12,10,20.10
2013,05,07,12,11,20.10
2013,05,07,12,12,20.10
2013,05,07,12,13,20.10
2013,05,07,12,14,20.20
2013,05,07,12,15,20.30
2013,05,07,12,16,20.30
2013,05,07,12,17,20.20
2013,05,07,12,18,20.10
2013,05,07,12,19,20.10
2013,05,07,12,20,20.10
2013,05,07,12,21,20.00
2013,05,07,12,22,20.00
2013,05,07,12,23,19.90
2013,05,07,12,24,19.90
2013,05,07,12,25,20.00
2013,05,07,12,26,20.10
2013,05,07,12,27,20.20
2013,05,07,12,28,20.40
2013,05,07,12,29,20.50
2013,05,07,12,30,20.50
2013,05,07,12,31,20.60
2013,05,07,12,32,20.60
2013,05,07,12,33,20.60
2013,05,07,12,34,20.60
2013,05,07,12,35,20.70
2013,05,07,12,36,20.70
2013,05,07,12,37,20.80
2013,05,07,12,38,20.80
2013,05,07,12,39,20.70
2013,05,07,12,40,20.60
2013,05,07,12,41,20.60
2013,05,07,12,42,20.60
2013,05,07,12,43,20.50
2013,05,07,12,44,20.40
2013,05,07,12,45,20.40
2013,05,07,12,46,20.40
2013,05,07,12,47,20.40
2013,05,07,12,48,20.40
2013,05,07,12,49,20.30
2013,05,07,12,50,20.30
2013,05,07,12,51,20.30
2013,05,07,12,52,20.30
2013,05,07,12,53,20.30
2013,05,07,12,54,20.30
2013,05,07,12,55,20.30
2013,05,07,12,56,20.30
2013,05,07,12,57,20.30
2013,05,07,12,58,20.30
2013,05,07,12,59,20.30
2013,05,07,13,00,20.30
2013,05,07,13,01,20.20
2013,05,07,13,02,20.20
2013,05,07,13,03,20.00
2013,05,07,13,04,20.00
2013,05,07,13,05,19.90
2013,05,07,13,06,20.00
2013,05,07,13,07,19.90
2013,05,07,13,08,19.90
2013,05,07,13,09,20.00
2013,05,07,13,10,20.00
2013,05,07,13,11,19.90
2013,05,07,13,12,19.90
2013,05,07,13,13,19.80
2013,05,07,13,14,19.70
2013,05,07,13,15,19.60
2013,05,07,13,16,19.60
2013,05,07,13,17,19.60
2013,05,07,13,18,19.60
2013,05,07,13,19,19.60
2013,05,07,13,20,19.60
2013,05,07,13,21,19.60
2013,05,07,13,22,19.60
2013,05,07,13,23,19.50
2013,05,07,13,24,19.50
2013,05,07,13,25,19.30
2013,05,07,13,26,19.20
2013,05,07,13,27,19.20
2013,05,07,13,28,19.10
2013,05,07,13,29,19.00
2013,05,07,13,30,19.00
2013,05,07,13,31,19.00
2013,05,07,13,32,18.90
2013,05,07,13,33,18.90
2013,05,07,13,34,19.00
2013,05,07,13,35,19.00
2013,05,07,13,36,19.00
2013,05,07,13,37,19.10
2013,05,07,13,38,19.10
2013,05,07,13,39,19.10
2013,05,07,13,40,19.10
2013,05,07,13,41,19.10
2013,05,07,13,42,19.20
2013,05,07,13,43,19.30
2013,05,07,13,44,19.40
2013,05,07,13,45,19.40
2013,05,07,13,46,19.40
2013,05,07,13,47,19.40
2013,05,07,13,48,19.50
2013,05,07,13,49,19.50
2013,05,07,13,50,19.50
2013,05,07,13,51,19.50
2013,05,07,13,52,19.50
2013,05,07,13,53,19.50
2013,05,07,13,54,19.50
2013,05,07,13,55,19.50
2013,05,07,13,56,19.50
2013,05,07,13,57,19.50
2013,05,07,13,58,19.50
2013,05,07,13,59,19.60
2013,05,07,14,00,19.60
2013,05,07,14,01,19.70
2013,05,07,14,02,19.70
2013,05,07,14,03,19.80
2013,05,07,14,04,19.90
2013,05,07,14,05,20.00
2013,05,07,14,06,20.10
2013,05,07,14,07,20.20
2013,05,07,14,08,20.20
2013,05,07,14,09,20.30
2013,05,07,14,10,20.20
2013,05,07,14,11,20.20
2013,05,07,14,12,20.10
2013,05,07,14,13,20.10
2013,05,07,14,14,20.10
2013,05,07,14,15,20.10
2013,05,07,14,16,20.10
2013,05,07,14,17,20.00
2013,05,07,14,18,20.10
2013,05,07,14,19,20.10
2013,05,07,14,20,20.10
2013,05,07,14,21,20.10
2013,05,07,14,22,20.10
2013,05,07,14,23,20.10
2013,05,07,14,24,20.10
2013,05,07,14,25,20.20
2013,05,07,14,26,20.20
2013,05,07,14,27,20.20
2013,05,07,14,28,20.30
2013,05,07,14,29,20.30
2013,05,07,14,30,20.30
2013,05,07,14,31,20.40
2013,05,07,14,32,20.40
2013,05,07,14,33,20.30
2013,05,07,14,34,20.30
2013,05,07,14,35,20.40
2013,05,07,14,36,20.40
2013,05,07,14,37,20.40
2013,05,07,14,38,20.40
2013,05,07,14,39,20.40
2013,05,07,14,40,20.40
2013,05,07,14,41,20.40
2013,05,07,14,42,20.40
2013,05,07,14,43,20.40
2013,05,07,14,44,20.50
2013,05,07,14,45,20.40
2013,05,07,14,46,20.40
2013,05,07,14,47,20.40
2013,05,07,14,48,20.40
2013,05,07,14,49,20.40
2013,05,07,14,50,20.50
2013,05,07,14,51,20.50
2013,05,07,14,52,20.60
2013,05,07,14,53,20.60
2013,05,07,14,54,20.80
2013,05,07,14,55,20.90
2013,05,07,14,56,21.10
2013,05,07,14,57,21.10
2013,05,07,14,58,21.20
2013,05,07,14,59,21.20
2013,05,07,15,00,21.10
2013,05,07,15,01,21.10
2013,05,07,15,02,21.00
2013,05,07,15,03,21.00
2013,05,07,15,04,21.00
2013,05,07,15,05,20.80
2013,05,07,15,06,20.80
2013,05,07,15,07,20.90
2013,05,07,15,08,20.90
2013,05,07,15,09,20.80
2013,05,07,15,10,20.80
2013,05,07,15,11,20.80
2013,05,07,15,12,20.80
2013,05,07,15,13,20.80
2013,05,07,15,14,20.90
2013,05,07,15,15,20.90
2013,05,07,15,16,20.90
2013,05,07,15,17,20.90
2013,05,07,15,18,20.80
2013,05,07,15,19,20.80
2013,05,07,15,20,20.90
2013,05,07,15,21,21.00
2013,05,07,15,22,21.00
2013,05,07,15,23,21.00
2013,05,07,15,24,20.90
2013,05,07,15,25,20.90
2013,05,07,15,26,20.90
2013,05,07,15,27,21.00
2013,05,07,15,28,21.10
2013,05,07,15,29,21.10
2013,05,07,15,30,21.10
2013,05,07,15,31,21.20
2013,05,07,15,32,21.20
2013,05,07,15,33,21.30
2013,05,07,15,34,21.30
2013,05,07,15,35,21.30
2013,05,07,15,36,21.20
2013,05,07,15,37,21.10
2013,05,07,15,38,21.10
2013,05,07,15,39,21.00
2013,05,07,15,40,20.90
2013,05,07,15,41,20.80
2013,05,07,15,42,20.80
2013,05,07,15,43,20.80
2013,05,07,15,44,20.80
2013,05,07,15,45,20.80
2013,05,07,15,46,20.80
2013,05,07,15,47,20.90
2013,05,07,15,48,20.90
2013,05,07,15,49,20.90
2013,05,07,15,50,20.90
2013,05,07,15,51,20.90
2013,05,07,15,52,20.90
2013,05,07,15,53,20.90
2013,05,07,15,54,20.90
2013,05,07,15,55,20.80
2013,05,07,15,56,20.80
2013,05,07,15,57,20.80
2013,05,07,15,58,20.80
2013,05,07,15,59,20.80
2013,05,07,16,00,20.80
2013,05,07,16,01,20.80
2013,05,07,16,02,20.80
2013,05,07,16,03,20.80
2013,05,07,16,04,20.80
2013,05,07,16,05,20.80
2013,05,07,16,06,20.90
2013,05,07,16,07,21.00
2013,05,07,16,08,21.00
2013,05,07,16,09,21.00
2013,05,07,16,10,20.90
2013,05,07,16,11,20.90
2013,05,07,16,12,20.80
2013,05,07,16,13,20.90
2013,05,07,16,14,20.90
2013,05,07,16,15,20.90
2013,05,07,16,16,20.90
2013,05,07,16,17,21.00
2013,05,07,16,18,21.00
2013,05,07,16,19,21.00
2013,05,07,16,20,21.00
2013,05,07,16,21,21.00
2013,05,07,16,22,21.10
2013,05,07,16,23,21.10
2013,05,07,16,24,21.10
2013,05,07,16,25,21.10
2013,05,07,16,26,21.10
2013,05,07,16,27,21.10
2013,05,07,16,28,21.10
2013,05,07,16,29,21.00
2013,05,07,16,30,20.90
2013,05,07,16,31,20.80
2013,05,07,16,32,20.80
2013,05,07,16,33,20.80
2013,05,07,16,34,20.70
2013,05,07,16,35,20.70
2013,05,07,16,36,20.70
2013,05,07,16,37,20.70
2013,05,07,16,38,20.70
2013,05,07,16,39,20.70
2013,05,07,16,40,20.70
2013,05,07,16,41,20.70
2013,05,07,16,42,20.70
2013,05,07,16,43,20.70
2013,05,07,16,44,20.70
2013,05,07,16,45,20.70
2013,05,07,16,46,20.80
2013,05,07,16,47,20.80
2013,05,07,16,48,20.80
2013,05,07,16,49,20.80
2013,05,07,16,50,20.90
2013,05,07,16,51,20.90
2013,05,07,16,52,21.00
2013,05,07,16,53,21.00
2013,05,07,16,54,21.10
2013,05,07,16,55,21.00
2013,05,07,16,56,21.00
2013,05,07,16,57,20.90
2013,05,07,16,58,20.80
2013,05,07,16,59,20.80
2013,05,07,17,00,20.80
2013,05,07,17,01,20.80
2013,05,07,17,02,20.80
2013,05,07,17,03,20.80
2013,05,07,17,04,20.90
2013,05,07,17,05,20.90
2013,05,07,17,06,21.00
2013,05,07,17,07,21.10
2013,05,07,17,08,21.10
2013,05,07,17,09,21.10
2013,05,07,17,10,21.10
2013,05,07,17,11,21.10
2013,05,07,17,12,21.20
2013,05,07,17,13,21.20
2013,05,07,17,14,21.30
2013,05,07,17,15,21.30
2013,05,07,17,16,21.40
2013,05,07,17,17,21.40
2013,05,07,17,18,21.40
2013,05,07,17,19,21.50